Regional Weather Roundup
Issued by NWS Newport/Morehead, NC

Current Version | Previous Version | Text Only | Print | Product List | Glossary On
Versions: 1 2 3 4 5 6 7 8 9 10 11 12 13 14 15 16 17 18 19 20 21 22 23 24 25 26 27 28 29 30 31 32 33 34 35 36 37 38 39 40 41 42 43 44 45 46 47 48 49 50
000
ASUS42 KMHX 011910
RWRMHX
WEATHER ROUNDUP FOR EASTERN NORTH CAROLINA
NATIONAL WEATHER SERVICE NEWPORT/MOREHEAD CITY NC
300 PM EDT FRI AUG 01 2014

NOTE: "FAIR" INDICATES FEW OR NO CLOUDS BELOW 12,000 FEET
WITH NO SIGNIFICANT WEATHER AND/OR OBSTRUCTIONS TO VISIBILITY

NCZ015>017-031-032-045>047-102-103-012000-
NORTH COAST

CITY           SKY/WX    TMP DP  RH WIND       PRES   REMARKS
EDENTON        LGT RAIN  72  69  92 NE10G17   30.11F
ELIZABETH CITY HVY RAIN  71  66  84 E9        30.14S
KITTY HAWK     RAIN      74  73  95 E8        30.12S
MANTEO         NOT AVBL

$$

NCZ045>047-081-094-103-104-012000-
CENTRAL COAST

CITY           SKY/WX    TMP DP  RH WIND       PRES   REMARKS
FRISCO         LGT RAIN  75  73  93 N3        30.12F
SWANQUARTER      N/A     70 N/A N/A NE1       30.09S

$$

NCZ095-097-098-100-101-012000-
SOUTHERN COAST

CITY           SKY/WX    TMP DP  RH WIND       PRES   REMARKS
BEAUFORT       LGT RAIN  73  72  96 E5        30.08F
CEDAR ISLAND     N/A     72 N/A N/A S2G10     30.15S
JACKSONVILLE   CLOUDY    77  76  96 SE8       30.05F
NEWPORT        NOT AVBL
PINEY ISLAND   NOT AVBL
WILMINGTON     CLOUDY    79  74  84 SE7       30.04F


$$

NCZ011>013-027>030-043-044-078>080-089-090>093-098-012000-
COASTAL PLAIN

CITY           SKY/WX    TMP DP  RH WIND       PRES   REMARKS
AHOSKIE        CLOUDY    69  66  93 E6        30.14F
CLINTON        CLOUDY    75  73  95 NE3       30.05F
ELIZABETHTOWN  CLOUDY    78  73  85 SE5       30.04F
GOLDSBORO      CLOUDY    73  73 100 E10       30.05F
GREENVILLE     CLOUDY    70  70 100 NE10      30.11F
HAVELOCK       LGT RAIN  73  72  96 E7        30.08F FOG
KENANSVILLE    CLOUDY    75  72  91 SE7       30.06F
KINSTON        CLOUDY    75  73  94 E8        30.08F
NEW BERN       LGT RAIN  75  71  87 E5        30.09F
RICHLANDS      CLOUDY    75  70  83 E6        30.06F
ROANOKE RAPIDS NOT AVBL
ROCKY MOUNT    CLOUDY    70  67  90 NE13G20   30.10F
WASHINGTON     CLOUDY    72  70  93 SE8       30.11S
WHITEVILLE     LGT RAIN  77  74  92 SE5       30.03S

$$

AMZ130-135-150-152-154-156-158-170-250-252-270-ANZ085-086-088-633-658-670-012000-
MARINE OBSERVATIONS

STATION/POSITION TIME  TEMP    WIND        PRES    WAVE   SWELL
                       AIR SEA DIR/SP/G            HT/PER HT/PER
                 (UTC) (F)     (DEG/KT/KT) (MB)    (FT/S) (FT/S)
CHESAPEAKE LIGHT NOT AVBL
BUOY 44014       1900   76 78   60/ 16/ 17 1020.5    3/ 7   2/ 7
DUCK             1900   74 76   60/ 19/ 21 1019.7
2E DUCK          1900                        N/A     4/ 4
OREGON INLET     1900   73 78   90/  7/ 13 1020.3
BUOY 44095       1900      78                N/A     4/ 6
20E OREGON INLET NOT AVBL
HATTERAS CG      1900   74 79   10/  1/  2 1020.2
DIAMOND BUOY     1900          VRB  6/ 10  1020.0    3/ 6   3/ 6
CAPE LOOKOUT     1800   73     270/  9/ 10 1019.5
BEAUFORT LAB     1900   72 80   90/  4/  5 1018.0
30 SE NEW RIVER  1800   75 81  320/ 10/ 14 1018.6
5 SE WRIGHTSVILL 1800   75 81  100/  4/  4   N/A
BUOY 41002       1845   82 81  160/ 12/ 16 1019.6    4/ 6   3/ 6
BUOY 41004       1900   78 82  150/ 21/ 23 1015.2    5/ 5   2/14

$$


USA.gov is the U.S. government's official web portal to all federal, state and local government web resources and services.